DW5868 Weather Reports


time (UTC)temp
F
wind
direction
speed
knots
gust
knots
rain 1hr
in
rain 24hr
in
rain mn
in
humidity
%
barometer
mb
20260505121512 32 263 3.5 8.7 0.00 0.12 0.00 85 1007.7
20260505120022 32 256 2.6 7.0 0.00 0.12 0.00 87 1007.8
20260505114508 32 295 0.9 7.0 0.00 0.12 0.00 86 1007.9
20260505113007 33 275 0.9 6.1 0.00 0.12 0.00 84 1007.7
20260505111514 33 138 2.6 9.6 0.00 0.12 0.00 84 1007.9
20260505101508 32 257 0.0 2.6 0.00 0.12 0.00 92 1007.7
20260505100002 32 76 0.0 0.0 0.00 0.12 0.00 92 1008.0
20260505094601 32 76 0.0 0.9 0.00 0.12 0.00 92 1008.2
20260505093102 32 75 0.0 2.6 0.00 0.12 0.00 91 1008.2
20260505091607 33 38 0.0 4.3 0.00 0.12 0.00 90 1008.4
20260505090057 33 11 2.6 7.0 0.00 0.12 0.00 88 1008.4
20260505084556 33 63 2.6 5.2 0.00 0.12 0.00 87 1008.5
20260505083057 34 246 0.0 6.1 0.00 0.12 0.00 79 1008.6
20260505081550 34 304 0.9 9.6 0.00 0.12 0.00 79 1008.5
20260505080050 34 196 0.0 5.2 0.00 0.12 0.00 80 1008.7
20260505074547 34 256 1.7 6.1 0.00 0.12 0.00 80 1009.0
20260505073053 34 277 3.5 8.7 0.00 0.12 0.12 82 1009.1
20260505071555 34 232 1.7 7.8 0.00 0.12 0.12 81 1009.1
20260505070045 34 236 1.7 7.0 0.00 0.12 0.12 82 1009.0
20260505064543 34 279 0.9 5.2 0.00 0.12 0.12 81 1009.0
20260505063042 34 211 0.9 6.1 0.00 0.12 0.12 82 1009.1
20260505061545 34 269 1.7 6.1 0.00 0.12 0.12 81 1009.2
20260505060047 34 291 1.7 9.6 0.00 0.12 0.12 81 1009.1
20260505054541 34 261 0.0 7.0 0.00 0.12 0.12 82 1009.1
20260505053040 35 300 2.6 6.1 0.00 0.12 0.12 80 1009.0
20260505051556 35 271 0.9 6.1 0.00 0.12 0.12 77 1008.9
20260505041538 36 322 2.6 7.0 0.00 0.12 0.12 77 1008.2
20260505040037 37 284 0.9 7.8 0.00 0.12 0.12 71 1007.9
20260505034535 37 206 1.7 11.3 0.00 0.12 0.12 69 1007.7
20260505033037 37 273 3.5 8.7 0.00 0.12 0.12 71 1007.6
20260505031533 37 233 3.5 9.6 0.00 0.12 0.12 72 1007.8
20260505030032 37 250 4.3 12.2 0.00 0.12 0.12 71 1007.4
20260505024533 37 263 3.5 14.8 0.00 0.12 0.12 73 1007.5
20260505023032 37 217 3.5 13.0 0.00 0.12 0.12 73 1007.6
20260505021532 37 270 2.6 10.4 0.00 0.12 0.12 73 1007.7
20260505020030 37 342 3.5 8.7 0.00 0.12 0.12 74 1007.7
20260505014530 37 269 4.3 10.4 0.00 0.12 0.12 76 1007.8
20260505013036 37 236 3.5 12.2 0.00 0.13 0.12 77 1007.9
20260505011530 38 284 4.3 12.2 0.00 0.13 0.12 76 1007.9
20260505010030 38 214 3.5 9.6 0.00 0.13 0.12 75 1007.8
20260505004532 39 272 4.3 14.8 0.00 0.13 0.12 75 1007.9
20260505003034 40 325 4.3 14.8 0.00 0.13 0.12 70 1007.6
20260505001532 43 277 2.6 15.6 0.00 0.13 0.12 66 1007.4
20260505000040 43 155 1.7 7.8 0.00 0.13 0.12 65 1007.3
20260504234533 42 249 3.5 10.4 0.00 0.13 0.12 66 1007.2
20260504233029 42 284 4.3 13.0 0.00 0.13 0.12 66 1007.2
20260504231529 42 211 2.6 7.0 0.00 0.13 0.12 64 1007.2
20260504230029 43 95 2.6 7.8 0.01 0.13 0.12 62 1007.4
20260504224527 42 194 5.2 12.2 0.01 0.13 0.12 62 1007.3
20260504223027 43 163 4.3 9.6 0.03 0.13 0.12 62 1007.4
20260504221528 42 232 6.1 12.2 0.04 0.13 0.12 61 1007.7
20260504220037 42 229 5.2 19.1 0.04 0.12 0.11 63 1007.2
20260504214527 42 188 7.8 19.1 0.05 0.12 0.11 66 1007.0
20260504213027 41 227 6.1 13.9 0.05 0.11 0.10 71 1007.1
20260504211533 39 188 3.5 13.0 0.04 0.09 0.08 79 1007.6
20260504210025 38 272 0.0 4.3 0.04 0.08 0.07 86 1008.0
20260504204527 37 302 0.9 5.2 0.05 0.07 0.06 80 1008.4
20260504203028 37 210 0.0 4.3 0.05 0.06 0.05 82 1008.5
20260504201523 37 215 0.0 2.6 0.04 0.05 0.04 82 1008.3
20260504200023 36 190 0.0 9.6 0.03 0.04 0.03 84 1008.2
20260504194523 36 229 3.5 9.6 0.02 0.03 0.02 79 1008.1
20260504193025 36 251 1.7 11.3 0.00 0.01 0.00 79 1007.8
20260504191525 36 233 4.3 13.0 0.00 0.01 0.00 78 1007.6
20260504190022 36 213 3.5 11.3 0.00 0.01 0.00 79 1007.2
20260504184522 35 279 4.3 8.7 0.00 0.01 0.00 82 1007.1
20260504183023 35 229 0.0 7.0 0.00 0.01 0.00 87 1007.6
20260504181529 34 226 0.0 3.5 0.00 0.01 0.00 86 1007.7
20260504180022 35 190 0.0 6.1 0.00 0.01 0.00 84 1007.5
20260504174519 36 280 8.7 16.5 0.00 0.01 0.00 81 1006.6
20260504173017 38 302 3.5 12.2 0.00 0.01 0.00 79 1006.1
20260504171516 38 273 6.1 13.9 0.00 0.01 0.00 76 1005.9